Location: Anaheim
(33.8350°N, 117.9140°W)
Time: 09:07:26
(UTC-07:00)

Amateur Radio Satellites - All Passes

Search period start: 24 October 2014 08:37
Search period end: 25 October 2014 08:37
Location: Anaheim, 33.8350°N, 117.9140°W

Satellite Date Start Highest point End Downlink Frequencies (MHz)
Time Altitude Azimuth
HO-68 24 Oct 08:39:50 08:44:57 21° 94° (E) 08:50:02 435.675 MHz FM
Saudisat 1A 24 Oct 08:54:13 08:57:04 17° 310° (NW) 08:59:55 436.775 MHz
UKube-1 24 Oct 09:31:23 09:33:52 15° 94° (E) 09:36:20 145.840 MHz, 145.915 MHz
MaSat-1 24 Oct 09:50:03 09:52:34 76° 67° (ENE) 09:54:55 437.345 MHz
Oscar 10/S400 24 Oct 09:53:42 10:26:21 22° 158° (SSE) 10:41:07 145.825 - 145.975 CW/USB, Beacon 145.810 USB
PANSAT 24 Oct 10:00:50 10:04:21 35° 184° (S) 10:07:52 not established
FUNcube-1 24 Oct 10:09:56 10:12:18 15° 93° (E) 10:14:38 145.950 - 145.970 MHz USB
Oscar 11 24 Oct 10:12:00 10:16:06 43° 99° (E) 10:20:12 145.825 FM, Beacon 2401.500 USB
HO-68 24 Oct 10:25:56 10:33:00 62° 289° (WNW) 10:40:03 435.675 MHz FM
RS-15 24 Oct 10:56:11 10:57:24 10° 263° (W) 10:58:39 29.354 - 29.394 USB, Beacon 29.352 USB
ZACube-1 24 Oct 10:59:45 11:03:58 64° 101° (E) 11:08:05 437.345 MHz
UKube-1 24 Oct 11:06:06 11:10:09 38° 288° (WNW) 11:14:10 145.840 MHz, 145.915 MHz
KITSAT 1 24 Oct 11:29:17 11:36:40 41° 108° (ESE) 11:44:03 435.175 FM
ISS 24 Oct 11:40:24 11:42:59 21° 129° (SE) 11:45:34 145.800 FM
PANSAT 24 Oct 11:41:11 11:44:05 21° 196° (SSW) 11:47:00 not established
FUNcube-1 24 Oct 11:44:56 11:48:47 34° 287° (WNW) 11:52:33 145.950 - 145.970 MHz USB
Oscar 11 24 Oct 11:49:47 11:51:52 13° 293° (WNW) 11:53:57 145.825 FM, Beacon 2401.500 USB
PCSat 24 Oct 12:06:44 12:09:10 13° 48° (NE) 12:11:35 145.825 MHz
Oscar 16 24 Oct 12:31:19 12:34:35 17° 66° (ENE) 12:37:51 437.025 USB, Beacon 2401.1428
SO-50 24 Oct 12:42:25 12:46:48 63° 116° (ESE) 12:51:20 436.795 FM
Uribyol 2 24 Oct 12:52:28 12:53:38 11° 62° (ENE) 12:54:49 436.500 FM
ITAMSAT 1 24 Oct 12:57:50 12:59:32 12° 63° (ENE) 13:01:13 435.822 SSB
JAS-1B 24 Oct 13:02:27 13:07:39 31° 69° (ENE) 13:12:33 435.800 - 435.900 CW/SSB
ISS 24 Oct 13:16:36 13:19:32 29° 323° (NW) 13:22:30 145.800 FM
Oscar 19 24 Oct 13:22:45 13:27:46 56° 74° (ENE) 13:32:48 437.125 CW, 437.150 USB
KITSAT 1 24 Oct 13:24:31 13:31:58 40° 305° (NW) 13:39:28 435.175 FM
Sapphire 24 Oct 13:25:16 13:30:36 56° 62° (ENE) 13:35:54 437.095 MHz 1200 baud AX-25 AFSK
AO-27 24 Oct 13:40:02 13:44:37 32° 70° (ENE) 13:49:14 436.795 MHz FM
PCSat 24 Oct 13:47:48 13:53:14 84° 246° (WSW) 13:58:38 145.825 MHz
AO-Echo 24 Oct 14:06:26 14:11:15 76° 76° (ENE) 14:16:15 ?
UOSAT-12 24 Oct 14:08:15 14:12:32 41° 113° (ESE) 14:16:55 437.025 FM, 437.400 FM
Oscar 16 24 Oct 14:08:31 14:13:30 48° 260° (W) 14:18:29 437.025 USB, Beacon 2401.1428
AO-7 24 Oct 14:23:17 14:27:17 15° 53° (NE) 14:31:16 29.400 - 29.500 MHz
SO-50 24 Oct 14:25:31 14:27:47 14° 313° (NW) 14:30:06 436.795 FM
Uribyol 2 24 Oct 14:27:09 14:32:22 80° 257° (WSW) 14:37:37 436.500 FM
ITAMSAT 1 24 Oct 14:33:08 14:38:19 75° 258° (WSW) 14:43:33 435.822 SSB
Gurwin Techsat 1B 24 Oct 14:50:59 14:56:17 82° 76° (ENE) 15:01:36 435.225 FM
JAS-1B 24 Oct 14:53:05 14:58:18 28° 262° (W) 15:03:10 435.800 - 435.900 CW/SSB
TMSAT-1 24 Oct 15:02:26 15:07:43 77° 76° (ENE) 15:13:02 436.925 FM
Oscar 19 24 Oct 15:04:48 15:07:23 14° 267° (W) 15:09:58 437.125 CW, 437.150 USB
Sapphire 24 Oct 15:10:20 15:13:29 16° 256° (WSW) 15:16:37 437.095 MHz 1200 baud AX-25 AFSK
AO-27 24 Oct 15:19:53 15:24:05 25° 264° (W) 15:28:20 436.795 MHz FM
Saudisat 1A 24 Oct 15:44:44 15:47:01 14° 48° (NE) 15:49:19 436.775 MHz
UOSAT-12 24 Oct 15:49:25 15:52:50 20° 310° (NW) 15:56:18 437.025 FM, 437.400 FM
Uosat F 24 Oct 15:51:38 15:56:00 31° 70° (ENE) 16:00:24 435.120 FM
AO-7 24 Oct 16:10:29 16:18:43 78° 71° (ENE) 16:27:00 29.400 - 29.500 MHz
JAS-2 24 Oct 16:48:11 16:53:09 29° 66° (ENE) 16:58:38 435.800 - 435.900 CW/SSB, 435.910 FM
Hamsat 24 Oct 17:13:21 17:16:42 23° 71° (ENE) 17:20:02 145.90 MHz
Saudisat 1A 24 Oct 17:22:35 17:26:56 58° 244° (WSW) 17:31:15 436.775 MHz
Uosat F 24 Oct 17:30:42 17:34:44 24° 264° (W) 17:38:48 435.120 FM
OPAL 24 Oct 17:35:59 17:40:31 35° 100° (E) 17:45:01 ?
AO-40 24 Oct 17:54:31 22:20:38 46° 188° (S) 04:11:13 Beacon 2401.320
AO-7 24 Oct 18:06:56 18:12:08 18° 266° (W) 18:17:23 29.400 - 29.500 MHz
JAS-2 24 Oct 18:32:49 18:38:01 35° 265° (W) 18:43:51 435.800 - 435.900 CW/SSB, 435.910 FM
SO-67 24 Oct 18:35:04 18:37:39 20° 72° (ENE) 18:40:15 435.3500 MHz FM
Hamsat 24 Oct 18:49:12 18:52:31 22° 264° (W) 18:55:50 145.90 MHz
HO-68 24 Oct 19:09:18 19:10:15 10° 55° (NE) 19:11:13 435.675 MHz FM
OPAL 24 Oct 19:15:26 19:19:08 22° 294° (WNW) 19:22:49 ?
STRAND 1 24 Oct 19:19:51 19:24:50 47° 100° (E) 19:29:45 ?
KITSAT 1 24 Oct 19:29:16 19:31:44 11° 36° (NE) 19:34:12 435.175 FM
ISS 24 Oct 19:47:53 19:51:09 50° 41° (NE) 19:54:23 145.800 FM
SO-67 24 Oct 20:08:22 20:10:32 16° 265° (W) 20:12:43 435.3500 MHz FM
RS-15 24 Oct 20:44:57 20:53:35 27° 104° (ESE) 21:02:02 29.354 - 29.394 USB, Beacon 29.352 USB
HO-68 24 Oct 20:49:33 20:56:38 69° 72° (ENE) 21:03:45 435.675 MHz FM
STRAND 1 24 Oct 21:00:17 21:03:35 18° 294° (WNW) 21:06:53 ?
Oscar 11 24 Oct 21:03:54 21:07:11 22° 70° (ENE) 21:10:28 145.825 FM, Beacon 2401.500 USB
SO-50 24 Oct 21:18:08 21:21:57 22° 52° (NE) 21:25:46 436.795 FM
KITSAT 1 24 Oct 21:21:17 21:29:09 53° 58° (ENE) 21:36:58 435.175 FM
ISS 24 Oct 21:26:16 21:27:28 12° 234° (SW) 21:28:40 145.800 FM
ZACube-1 24 Oct 21:52:12 21:56:19 33° 72° (ENE) 22:00:23 437.345 MHz
UKube-1 24 Oct 21:57:09 22:01:28 74° 258° (WSW) 22:05:51 145.840 MHz, 145.915 MHz
FUNcube-1 24 Oct 22:36:22 22:40:58 76° 258° (WSW) 22:45:32 145.950 - 145.970 MHz USB
Oscar 11 24 Oct 22:39:33 22:43:11 26° 263° (W) 22:46:50 145.825 FM, Beacon 2401.500 USB
HO-68 24 Oct 22:40:10 22:44:47 18° 266° (W) 22:49:26 435.675 MHz FM
UOSAT-12 24 Oct 22:42:42 22:45:20 15° 48° (NE) 22:47:56 437.025 FM, 437.400 FM
RS-15 24 Oct 22:53:56 23:04:55 69° 301° (WNW) 23:15:49 29.354 - 29.394 USB, Beacon 29.352 USB
Oscar 10/S400 24 Oct 22:56:13 00:01:28 46° 223° (SW) 06:31:15 145.825 - 145.975 CW/USB, Beacon 145.810 USB
SO-50 24 Oct 22:58:06 23:02:36 39° 247° (WSW) 23:07:07 436.795 FM
KITSAT 1 24 Oct 23:17:27 23:24:04 29° 254° (WSW) 23:30:42 435.175 FM
MaSat-1 24 Oct 23:22:08 23:26:18 54° 110° (ESE) 23:30:08 437.345 MHz
ZACube-1 24 Oct 23:29:26 23:32:42 19° 265° (W) 23:35:57 437.345 MHz
UOSAT-12 25 Oct 00:21:15 00:25:53 61° 244° (WSW) 00:30:24 437.025 FM, 437.400 FM
JAS-1B 25 Oct 00:51:33 00:53:47 11° 93° (E) 00:56:07 435.800 - 435.900 CW/SSB
MaSat-1 25 Oct 01:01:08 01:02:05 11° 302° (WNW) 01:03:01 437.345 MHz
RS-15 25 Oct 01:12:36 01:19:43 19° 327° (NNW) 01:26:55 29.354 - 29.394 USB, Beacon 29.352 USB
Oscar 19 25 Oct 01:38:50 01:43:07 27° 97° (E) 01:47:23 437.125 CW, 437.150 USB
AO-27 25 Oct 01:58:05 02:01:12 16° 93° (E) 02:04:17 436.795 MHz FM
AO-Echo 25 Oct 02:17:41 02:22:33 35° 98° (E) 02:27:21 ?
Sapphire 25 Oct 02:23:44 02:25:35 12° 102° (ESE) 02:27:25 437.095 MHz 1200 baud AX-25 AFSK
Oscar 16 25 Oct 02:23:58 02:29:07 82° 103° (ESE) 02:34:13 437.025 USB, Beacon 2401.1428
JAS-1B 25 Oct 02:37:43 02:44:39 84° 104° (ESE) 02:53:01 435.800 - 435.900 CW/SSB
PCSat 25 Oct 02:43:45 02:47:49 22° 106° (ESE) 02:51:55 145.825 MHz
Uribyol 2 25 Oct 02:44:03 02:49:07 51° 100° (E) 02:54:08 436.500 FM
ITAMSAT 1 25 Oct 02:50:06 02:55:13 55° 101° (E) 03:00:18 435.822 SSB
Gurwin Techsat 1B 25 Oct 03:11:23 03:16:28 45° 99° (E) 03:21:32 435.225 FM
Oscar 19 25 Oct 03:18:00 03:22:22 29° 290° (WNW) 03:26:43 437.125 CW, 437.150 USB
TMSAT-1 25 Oct 03:22:30 03:27:31 42° 99° (E) 03:32:30 436.925 FM
AO-27 25 Oct 03:35:53 03:40:56 50° 287° (WNW) 03:45:56 436.795 MHz FM
AO-Echo 25 Oct 03:56:50 04:01:03 25° 292° (WNW) 04:05:15 ?
Sapphire 25 Oct 04:02:55 04:08:17 71° 297° (WNW) 04:13:43 437.095 MHz 1200 baud AX-25 AFSK
Uosat F 25 Oct 04:04:56 04:07:07 13° 93° (E) 04:09:18 435.120 FM
AO-7 25 Oct 04:17:04 04:24:22 33° 99° (E) 04:31:38 29.400 - 29.500 MHz
Uribyol 2 25 Oct 04:24:55 04:28:07 17° 295° (WNW) 04:31:18 436.500 FM
PCSat 25 Oct 04:25:51 04:30:55 41° 301° (WNW) 04:36:01 145.825 MHz
JAS-1B 25 Oct 04:30:54 04:34:43 16° 296° (WNW) 04:38:52 435.800 - 435.900 CW/SSB
ITAMSAT 1 25 Oct 04:31:12 04:34:12 16° 295° (WNW) 04:37:11 435.822 SSB
OPAL 25 Oct 04:46:58 04:51:49 43° 70° (ENE) 04:56:38 ?
Gurwin Techsat 1B 25 Oct 04:52:24 04:56:02 19° 294° (WNW) 04:59:41 435.225 FM
TMSAT-1 25 Oct 05:03:17 05:07:05 20° 293° (WNW) 05:10:52 436.925 FM
Uosat F 25 Oct 05:41:15 05:46:12 58° 286° (WNW) 05:51:08 435.120 FM
JAS-2 25 Oct 05:44:43 05:52:09 45° 98° (E) 05:59:25 435.800 - 435.900 CW/SSB, 435.910 FM
RS-15 25 Oct 05:48:21 05:57:21 27° 41° (NE) 06:06:34 29.354 - 29.394 USB, Beacon 29.352 USB
AO-7 25 Oct 06:09:22 06:17:12 48° 294° (WNW) 06:25:04 29.400 - 29.500 MHz
PANSAT 25 Oct 06:17:04 06:19:21 15° 160° (SSE) 06:21:38 not established
OPAL 25 Oct 06:27:16 06:30:48 19° 263° (W) 06:34:19 ?
STRAND 1 25 Oct 06:31:57 06:36:49 46° 72° (ENE) 06:41:43 ?
Hamsat 25 Oct 06:37:30 06:41:43 83° 102° (ESE) 06:45:56 145.90 MHz
Saudisat 1A 25 Oct 07:24:57 07:29:19 87° 298° (WNW) 07:33:44 436.775 MHz
JAS-2 25 Oct 07:29:58 07:36:51 36° 293° (WNW) 07:43:41 435.800 - 435.900 CW/SSB, 435.910 FM
SO-67 25 Oct 07:34:01 07:37:17 40° 99° (E) 07:40:33 435.3500 MHz FM
PANSAT 25 Oct 07:55:36 07:59:01 31° 172° (S) 08:02:27 not established
RS-15 25 Oct 07:59:49 08:11:07 86° 244° (WSW) 08:22:56 29.354 - 29.394 USB, Beacon 29.352 USB
STRAND 1 25 Oct 08:12:56 08:16:11 17° 266° (W) 08:19:27 ?
HO-68 25 Oct 08:24:11 08:27:51 15° 92° (E) 08:31:30 435.675 MHz FM
